Погода в Ликино-Дулево

Россия / Московская область     55°42′28″N   38°57′27″E
темп.,
°C
ветер,
м/с
пор.,
м/с
влажн.,
%
обл.,
%
осадки,
мм/ч
давл.,
гПа
погр.,
м
18 апреля, вс
вс1800:00+8всв514638 0.0 1021545
03:00+6всв513705 0.0 1021453
06:00+4всв513748 0.0 1021451
09:00+8в5105783 0.0 1021806
12:00+12в694393 0.0 10211628
15:00+10юв5960100 0.0 1021953
18:00+8вюв41071100 0.0 1022921
21:00+7в268198 0.0 1023211
19 апреля, пн
пн1900:00+7св2782100 0.0 1023394
03:00+6всв51088100 0.8 1024787
06:00+4всв5118599 0.1 1024535
09:00+6всв6872100 0.1 1025710
12:00+5всв5980100 0.4 1025805
15:00+8всв6957100 0.4 10251237
18:00+8всв6105397 0.0 10251426
21:00+6всв51051100 0.0 1025805
20 апреля, вт
вт2000:00+4всв51059100 0.0 1025813
03:00+2всв5117888 0.1 1024717
06:00+1всв51297100 1.5 1023516
09:00+1в51297100 4.1 1023535
12:00+2в51297100 0.6 1023575
15:00+3в51397100 1.4 1021805
18:00+4в61495100 1.0 1019944
21:00+6в71680100 1.1 10151152
21 апреля, ср
ср2100:00+4в81890100 1.3 10111102
03:00+3в81997100 6.2 10061290
06:00+4вюв81893100 1.2 1003996
09:00+6вюв81693100 1.3 1002953
12:00+7юв71493100 0.7 10011224
15:00+5ююз71384100 1.8 10041000
18:00+4ююз71380100 0.0 10071106
21:00+4ююз61383100 0.1 10101205
22 апреля, чт
чт2200:00+5юз61279100 0.0 10121130
03:00+3ююз4129221 0.0 1013436
06:00+3ю4109465 0.0 1015329
09:00+7ююз478161 0.0 1016623
12:00+9ююз477495 0.4 10171103
15:00+11ююз586838 1.8 10181293
18:00+10ююз398195 0.4 1018522
21:00+7ююв399091 0.6 1019208